Weather History for Perth, WE

Change the Weather History Date:

Saturday, July 27, 2013

  Actual Average Record
Temperature  
Mean Temperature 56 °F -  
Max Temperature 65 °F 65 °F 71 °F (2005)
Min Temperature 46 °F 47 °F 32 °F (1998)
Degree Days  
Heating Degree Days 10    
Growing Degree Days 6 (Base 50)    
Moisture  
Dew Point 51 °F    
Average Humidity 79    
Maximum Humidity 94    
Minimum Humidity 57    
Precipitation  
Precipitation 0.04 in 0.15 in - ()
Sea Level Pressure  
Sea Level Pressure 29.81 in    
Wind  
Wind Speed 13 mph ()    
Max Wind Speed 28 mph    
Max Gust Speed 44 mph    
Visibility 6.3 miles    
Events Rain , Thunderstorm    
Averages and records for this station are not official NWS values.
T = Trace of Precipitation, MM = Missing Value Source: Averaged Metar Reports

Daily Weather History Graph

Daily Weather History Graph

Search for Another Location

Airport:

Trip Planner

Search our weather history database for the weather conditions in past years. The results will help you decide how hot, cold, wet, or windy it might be!

Date:

Astronomy

Jul. 27, 2013 Rise Set
Actual Time 7:08 AM AWST 5:36 PM AWST
Civil Twilight 6:42 AM AWST 6:02 PM AWST
Nautical Twilight 6:13 AM AWST 6:32 PM AWST
Astronomical Twilight 5:43 AM AWST 7:01 PM AWST
Moon 10:41 PM AWST (7/27) 9:49 AM AWST (7/27)
Length of Visible Light 11h 20m
Length of Day
10h 28m
Waning Gibbous, 76% of the Moon is Illuminated
Jul 27
Waning Gibbous
Jul 30
Last Quarter
Aug 7
New
Aug 14
First Quarter
Aug 21
Full

Hourly Weather History & Observations

Time (AWST) Temp. Windchill Dew Point Humidity Pressure Visibility Wind Dir Wind Speed Gust Speed Precip Events Conditions
12:00 AM 52 °F - 49 °F 85% 29.72 in 16 mi West 8.1 mph - - Rain Light Rain Showers
12:00 AM 51.8 °F - 48.2 °F 88% 29.71 in 6.2 mi West 8.1 mph - N/A   Mostly Cloudy
12:30 AM 51.8 °F - 48.2 °F 88% 29.71 in 6.2 mi West 4.6 mph - N/A   Mostly Cloudy
12:42 AM 50.0 °F - 44.6 °F 82% 29.74 in 5.0 mi West 25.3 mph 41.4 mph N/A Rain , Thunderstorm Thunderstorms and Rain
12:48 AM 50.0 °F - 44.6 °F 82% 29.74 in 3.7 mi WSW 23.0 mph - N/A Rain , Thunderstorm Thunderstorms and Rain
12:51 AM 50.0 °F - 42.8 °F 76% 29.71 in 5.0 mi SSW 24.2 mph - N/A Rain , Thunderstorm Light Thunderstorms and Rain
1:00 AM 50.0 °F - 42.8 °F 76% 29.68 in 6.2 mi SW 10.4 mph - N/A   Mostly Cloudy
1:30 AM 48.2 °F - 44.6 °F 87% 29.68 in 6.2 mi North 5.8 mph - N/A   Mostly Cloudy
2:00 AM 47 °F - 45 °F 88% 29.70 in - NNE 6.9 mph - -  
2:00 AM 46.4 °F 42.9 °F 44.6 °F 93% 29.68 in 6.2 mi NNE 6.9 mph - N/A   Scattered Clouds
2:30 AM 46.4 °F 42.4 °F 44.6 °F 93% 29.68 in 6.2 mi North 8.1 mph - N/A   Mostly Cloudy
3:00 AM 54 °F - 48 °F 73% 29.70 in 16 mi West 11.5 mph - - Rain Light Rain Showers
3:00 AM 53.6 °F - 48.2 °F 82% 29.68 in 6.2 mi West 11.5 mph - N/A   Scattered Clouds
3:30 AM 55.4 °F - 48.2 °F 77% 29.71 in 6.2 mi WSW 10.4 mph - N/A   Scattered Clouds
4:00 AM 55.4 °F - 48.2 °F 77% 29.71 in 6.2 mi WSW 6.9 mph - N/A   Scattered Clouds
4:30 AM 57.2 °F - 46.4 °F 67% 29.71 in 6.2 mi West 11.5 mph 23.0 mph N/A Rain Light Rain Showers
5:00 AM 56 °F - 49 °F 69% 29.70 in - West 9.2 mph - -  
5:00 AM 55.4 °F - 48.2 °F 77% 29.68 in 6.2 mi West 9.2 mph - N/A   Mostly Cloudy
5:30 AM 55.4 °F - 51.8 °F 88% 29.68 in 6.2 mi West 5.8 mph - N/A Rain Light Rain Showers
5:37 AM 55.4 °F - 51.8 °F 88% 29.68 in 5.0 mi WSW 17.3 mph - N/A Rain Rain Showers
6:00 AM 54 °F - 51 °F 88% 29.70 in 12 mi West 12.7 mph - -   Mostly Cloudy
6:00 AM 55.4 °F - 51.8 °F 88% 29.68 in 6.2 mi WSW 11.5 mph - N/A   Mostly Cloudy
6:30 AM 55.4 °F - 50.0 °F 82% 29.68 in 6.2 mi West 11.5 mph - N/A   Mostly Cloudy
7:00 AM 57.2 °F - 50.0 °F 77% 29.68 in 5.0 mi West 16.1 mph - N/A Rain Light Rain Showers
7:12 AM 59.0 °F - 51.8 °F 77% 29.68 in 4.3 mi West 13.8 mph - N/A   Mostly Cloudy
7:20 AM 59.0 °F - 51.8 °F 77% 29.68 in 4.3 mi West 18.4 mph 43.7 mph N/A Rain Rain Showers
7:30 AM 59.0 °F - 51.8 °F 77% 29.68 in 4.3 mi West 20.7 mph 33.4 mph N/A Rain Rain Showers
7:40 AM 59.0 °F - 51.8 °F 77% 29.68 in 1.9 mi West 19.6 mph - N/A Rain Rain Showers
7:41 AM 59.0 °F - 51.8 °F 77% 29.68 in 1.9 mi WSW 21.9 mph 35.7 mph N/A Rain Rain Showers
8:00 AM 58 °F - 53 °F 76% 29.71 in - WSW 16.1 mph - -  
8:00 AM 59.0 °F - 51.8 °F 77% 29.68 in 2.5 mi WSW 16.1 mph 32.2 mph N/A Rain Light Rain Showers
8:25 AM 59.0 °F - 53.6 °F 82% 29.71 in 3.7 mi WSW 20.7 mph 43.7 mph N/A Rain Light Rain Showers
8:30 AM 59.0 °F - 53.6 °F 82% 29.71 in 5.0 mi WSW 24.2 mph 43.7 mph N/A   Mostly Cloudy
8:45 AM 59.0 °F - 55.4 °F 88% 29.74 in 3.7 mi WSW 19.6 mph 31.1 mph N/A Rain Light Rain Showers
9:00 AM 59 °F - 54 °F 79% 29.75 in 6 mi WSW 19.6 mph - -   Mostly Cloudy
9:00 AM 59.0 °F - 53.6 °F 82% 29.74 in 6.2 mi WSW 19.6 mph - N/A   Mostly Cloudy
9:11 AM 60.8 °F - 55.4 °F 82% 29.74 in 6.2 mi WSW 17.3 mph 28.8 mph N/A   Mostly Cloudy
9:30 AM 59.0 °F - 53.6 °F 82% 29.77 in 6.2 mi SW 18.4 mph - N/A   Mostly Cloudy
9:42 AM 60.8 °F - 53.6 °F 77% 29.77 in 6.2 mi SW 17.3 mph 28.8 mph N/A   Mostly Cloudy
10:00 AM 62.6 °F - 53.6 °F 72% 29.77 in 6.2 mi WSW 18.4 mph - N/A   Mostly Cloudy
10:03 AM 62.6 °F - 53.6 °F 72% 29.77 in 6.2 mi WSW 20.7 mph 33.4 mph N/A   Mostly Cloudy
10:16 AM 59.0 °F - 53.6 °F 82% 29.80 in 3.1 mi SW 27.6 mph - N/A Rain Light Rain Showers
10:25 AM 59.0 °F - 53.6 °F 82% 29.80 in 5.0 mi SW 26.5 mph 38.0 mph N/A   Mostly Cloudy
10:30 AM 59.0 °F - 55.4 °F 88% 29.80 in 6.2 mi SW 21.9 mph - N/A   Mostly Cloudy
11:00 AM 63 °F - 55 °F 67% 29.80 in - SSW 18.4 mph - -  
11:00 AM 62.6 °F - 55.4 °F 77% 29.80 in 3.1 mi SSW 18.4 mph - N/A Rain Light Rain Showers
11:25 AM 60.8 °F - 55.4 °F 82% 29.80 in 5.6 mi SW 19.6 mph - N/A   Mostly Cloudy
11:30 AM 60.8 °F - 55.4 °F 82% 29.80 in 5.6 mi SW 21.9 mph - N/A   Mostly Cloudy
11:37 AM 62.6 °F - 55.4 °F 77% 29.80 in 6.2 mi SW 18.4 mph 29.9 mph N/A   Mostly Cloudy
12:00 PM 63 °F - 55 °F 69% 29.82 in 9 mi SW 17.3 mph - -   Mostly Cloudy
12:02 PM 62.6 °F - 55.4 °F 77% 29.80 in 6.2 mi SW 18.4 mph 29.9 mph N/A   Mostly Cloudy
12:19 PM 62.6 °F - 55.4 °F 77% 29.80 in 3.1 mi SW 21.9 mph - N/A Rain Light Rain Showers
12:30 PM 60.8 °F - 57.2 °F 88% 29.83 in 6.2 mi SW 16.1 mph - N/A   Mostly Cloudy
1:00 PM 62.6 °F - 55.4 °F 77% 29.83 in 6.2 mi WSW 16.1 mph - N/A Rain Light Rain Showers
1:30 PM 64.4 °F - 55.4 °F 73% 29.83 in 6.2 mi WSW 15.0 mph - N/A   Scattered Clouds
1:48 PM 64.4 °F - 53.6 °F 68% 29.83 in 6.2 mi SW 18.4 mph 29.9 mph N/A   Mostly Cloudy
2:00 PM 64 °F - 52 °F 57% 29.85 in - SW 19.6 mph - -  
2:00 PM 64.4 °F - 51.8 °F 64% 29.83 in 6.2 mi SW 19.6 mph - N/A   Scattered Clouds
2:27 PM 66.2 °F - 53.6 °F 64% 29.86 in 6.2 mi SW 19.6 mph 31.1 mph N/A Rain Light Rain Showers
2:30 PM 64.4 °F - 53.6 °F 68% 29.86 in 6.2 mi SW 20.7 mph - N/A Rain Light Rain Showers
2:50 PM 66.2 °F - 51.8 °F 60% 29.86 in 6.2 mi SSW 19.6 mph 31.1 mph N/A   Mostly Cloudy
3:00 PM 64 °F - 54 °F 61% 29.88 in 12 mi SW 21.9 mph - - Rain Light Rain Showers
3:00 PM 64.4 °F - 53.6 °F 68% 29.86 in 6.2 mi SW 21.9 mph - N/A Rain Light Rain Showers
3:30 PM 64.4 °F - 51.8 °F 64% 29.89 in 6.2 mi SW 17.3 mph - N/A   Scattered Clouds
4:00 PM 62.6 °F - 53.6 °F 72% 29.89 in 6.2 mi SW 18.4 mph - N/A   Partly Cloudy
4:30 PM 64.4 °F - 53.6 °F 68% 29.92 in 6.2 mi SW 20.7 mph - N/A   Scattered Clouds
5:00 PM 62 °F - 54 °F 66% 29.94 in - SW 15.0 mph - -  
5:00 PM 62.6 °F - 53.6 °F 72% 29.92 in 6.2 mi SW 15.0 mph - N/A Rain Light Rain Showers
5:30 PM 60.8 °F - 53.6 °F 77% 29.95 in 6.2 mi SW 16.1 mph - N/A   Scattered Clouds
6:00 PM 62 °F - 52 °F 61% 29.98 in 12 mi SSW 12.7 mph - -   Mostly Cloudy
6:00 PM 62.6 °F - 51.8 °F 68% 29.98 in 6.2 mi SSW 12.7 mph - N/A   Mostly Cloudy
6:30 PM 59.0 °F - 53.6 °F 82% 29.98 in 6.2 mi South 9.2 mph - N/A   Partly Cloudy
7:00 PM 59.0 °F - 51.8 °F 77% 30.01 in 6.2 mi SSW 11.5 mph - N/A   Partly Cloudy
7:30 PM 57.2 °F - 53.6 °F 88% 30.01 in 6.2 mi South 9.2 mph - N/A   Partly Cloudy
8:00 PM 57 °F - 53 °F 80% 30.03 in - South 8.1 mph - -  
8:00 PM 57.2 °F - 51.8 °F 82% 30.01 in - South 8.1 mph - N/A   Clear
8:30 PM 55.4 °F - 51.8 °F 88% 30.04 in - South 6.9 mph - N/A   Clear
9:00 PM 54 °F - 52 °F 90% 30.06 in 16 mi South 4.6 mph - -   Partly Cloudy
9:00 PM 53.6 °F - 51.8 °F 94% 30.04 in 6.2 mi South 4.6 mph - N/A   Scattered Clouds
9:30 PM 51.8 °F - 50.0 °F 94% 30.04 in 6.2 mi Calm Calm - N/A   Partly Cloudy
10:00 PM 50.0 °F - 48.2 °F 94% 30.06 in 6.2 mi WNW 2.3 mph - N/A   Partly Cloudy
10:30 PM 48.2 °F - 46.4 °F 93% 30.06 in 6.2 mi Calm Calm - N/A   Partly Cloudy
11:00 PM 48 °F - 47 °F 94% 30.08 in - Calm Calm - -  
11:00 PM 48.2 °F - 46.4 °F 93% 30.06 in - Calm Calm - N/A   Clear
11:30 PM 48.2 °F - 46.4 °F 93% 30.06 in - ESE 5.8 mph - N/A   Clear